Regional Weather Roundup
Issued by NWS Midland/Odessa, TX

Skip options and go directly to product.
Home | Oldest Version | Previous Version | Current Version | All | Text Only | Save Text | Print | Product List | Glossary Off

Skip product version selection by date and time.   

106
ASUS44 KMAF 311310
RWRMAF
MIDLAND AREA WEATHER ROUNDUP
NATIONAL WEATHER SERVICE MIDLAND TX
800 AM CDT FRI JUL 31 2015

...IN SOUTHWEST TEXAS AND SOUTHEAST NEW MEXICO...

CITY           SKY/WX    TMP DP  RH WIND       PRES   REMARKS
ALPINE         CLEAR     64  51  63 S8        30.32S
ANDREWS        FAIR      73  52  47 CALM      30.22R
ARTESIA        PTCLDY    70  66  88 NW10      30.25S
BIG SPRING     SUNNY     73  53  50 CALM      30.21R
CARLSBAD       CLEAR     73  63  70 NW14      30.21R
DRYDEN           N/A     77  56  48 NW8       30.12R
FORT STOCKTON  CLEAR     73  52  47 CALM      30.19R
GUAD PASS      CLEAR     73  49  42 E5        30.35R
HOBBS          PTCLDY    72  59  64 CALM      30.25R
MARFA          CLEAR     61  54  77 NW6       30.30R
MIDLAND AIRPK  SUNNY     79  53  40 CALM      30.20R
MIDLAND INTL   SUNNY     77  54  44 CALM      30.19R
ODESSA         SUNNY     78  50  37 CALM      30.20R
PECOS          CLEAR     73  47  40 N5        30.16S
PRESIDIO       FAIR      79  52  38 N12       30.14R
SEMINOLE       SUNNY     72  59  62 CALM      30.24R
SNYDER         PTSUNNY   74  64  71 CALM      30.19R
WINK           PTCLDY    75  50  41 E5        30.16R
$$
...OTHER STATIONS IN TEXAS...

CITY           SKY/WX    TMP DP  RH WIND       PRES   REMARKS
ABILENE        SUNNY     77  63  61 S3        30.13R
AMARILLO       FOG       70  69  97 W6        30.28R VSB 1/2
AUSTIN         PTSUNNY   79  71  76 SW3       30.03R
BROWNSVILLE    SUNNY     77  76  96 CALM      30.00R
CORPUS CHRISTI PTSUNNY   79  74  84 SW6       30.01R
DALLAS FTW     SUNNY     83  72  69 E7        30.08R
DEL RIO        SUNNY     79  63  57 E6        30.06R
EL PASO        CLOUDY    73  67  81 NW3       30.21S
HOUSTON INT    PTSUNNY   81  77  88 NE9       30.02R
LUBBOCK        MOSUNNY   72  69  90 E7        30.22R
SAN ANGELO     SUNNY     75  56  51 W3        30.14R
SAN ANTONIO    LGT RAIN  80  67  64 NW9       30.05R
WACO           SUNNY     79  71  76 NE7       30.06R
WICHITA FALLS  NOT AVBL
$$
...OTHER LOCATIONS IN NEW MEXICO...

CITY           SKY/WX    TMP DP  RH WIND       PRES   REMARKS
ALAMAGORDO     MOCLDY    68  64  88 NE6       30.27S
ALBUQUERQUE    CLOUDY    68  60  75 N3        30.35S
CANNON AFB     CLOUDY    66  64  93 N12       30.31R
CLOVIS         CLOUDY    66  63  88 N10       30.31S
HOLLOMAN AFB   DRIZZLE   73  61  64 W7        30.24S
ROSWELL        PTCLDY    70  63  78 N10       30.25R
RUIDOSO          N/A    N/A N/A N/A MISG        N/A
SANTA FE       CLOUDY    64  57  78 SE6       30.42R
TRUTH OR CONSE CLOUDY    67  63  87 N3        30.32R
TUCUMCARI      LGT RAIN  68  64  87 CALM      30.31R
$$

USA.gov is the U.S. government's official web portal to all federal, state and local government web resources and services.